Location: Ferintosh
(52.7647°N, 112.9692°W)
Time: 17:37:16
(UTC+00:00)

S-56A Canister/Altair - Pass Details

Date: 22 May 2024
Orbit: 637 x 2489 km, 38.9° (Epoch: 22 June)

Event Time Altitude Azimuth Distance (km) Brightness Sun altitude
Rises 17:06:19 0° 259° (WSW) 5,117 11.5 47.8°
Reaches altitude 10° 17:10:41 10° 249° (WSW) 3,790 11.0 48.3°
Maximum altitude 17:18:03 27° 197° (SSW) 2,142 10.4 49.2°
Drops below altitude 10° 17:23:29 10° 141° (SE) 2,716 11.2 49.8°
Sets 17:26:04 0° 129° (SE) 3,456 11.5 50.1°
